Location: Giam Ulau
(2.7833°N, 113.7500°E)
Time: 10:48:08
(UTC+00:00)

Daily predictions for brighter satellites

Satellite Brightness Start Highest point End
(mag) Time Altitude Azimuth Time Altitude Azimuth Time Altitude Azimuth
Cosmos 2315 Rocket 3.9 12:00:06 10° S 12:06:28 72° E 12:12:44 10° N
Okean O Rocket 2.7 12:02:37 10° S 12:06:46 43° WSW 12:10:56 10° NNW
NOSS 3-4 (A) 4.4 12:00:23 10° N 12:08:05 49° ENE 12:11:12 35° ESE
NOSS 3-4 (C) 4.4 12:00:31 10° N 12:08:10 49° ENE 12:11:11 35° ESE
ARIANE 5 DEB (SYLDA) 2.7 12:07:30 10° W 12:10:29 72° S 12:10:44 69° SE
Cosmos 2251 Rocket 3.4 12:06:13 10° N 12:11:33 74° ENE 12:13:05 47° SSE
Okean 1 Rocket 2.9 12:07:51 10° N 12:12:14 89° E 12:13:09 55° S
Okean-O 3.4 12:14:27 36° NE 12:14:27 36° NE 12:17:37 10° N
YAOGAN 1 4.0 12:09:37 10° SSW 12:13:31 35° WSW 12:17:27 10° NW
Meteor 2-5 Rocket 4.0 12:09:12 10° SSW 12:14:41 64° W 12:20:08 10° N
ARIANE 5 R/B 1.5 12:04:01 10° W 12:15:46 83° N 12:16:15 67° ENE
ARIANE 5 DEB (SYLDA 5A) 3.5 12:13:07 10° W 12:14:36 24° WSW 12:14:36 24° WSW
SL-4 R/B 4.3 12:12:31 10° SSW 12:12:40 11° SSW 12:12:40 11° SSW
Cosmos 1238 Rocket 4.4 12:11:19 10° NNW 12:17:39 61° W 12:23:28 11° S
Cosmos 1975 Rocket 4.1 12:15:19 10° SSW 12:19:35 44° W 12:23:48 10° NNW
Meteor 1-24 Rocket 4.1 12:19:45 10° SSW 12:24:57 57° W 12:30:08 10° N
Atlas Centaur 2 3.8 12:22:48 10° NNW 12:26:37 18° NNE 12:27:16 18° NNE
Cosmos 1331 Rocket 4.0 12:29:16 68° NE 12:29:16 68° NE 12:33:58 10° NNE
Meteor 2-10 Rocket 3.4 12:25:39 10° N 12:30:19 72° NE 12:30:19 72° NE
Meteosat 1 Rocket2 4.2 12:25:57 10° NW 12:30:33 35° NNE 12:30:33 35° NNE
H-2A R/B 2.4 12:28:50 10° N 12:33:08 69° WNW 12:33:08 69° WNW
Meteor 2-12 Rocket 4.3 12:30:04 10° N 12:36:02 71° ENE 12:36:02 71° ENE
Cosmos 1300 4.2 12:34:39 10° NNW 12:37:05 33° NW 12:37:05 33° NW
ARIANE 5 R/B 3.8 12:35:52 10° WSW 12:37:34 15° SW 12:37:34 15° SW
CZ-4 R/B 3.8 12:36:51 14° SW 12:39:00 20° WSW 12:42:05 10° NW
Delta 2 Rocket 3.7 12:32:37 10° WSW 12:39:04 80° SSE 12:39:04 80° SSE
COBE Rocket 4.1 12:40:03 61° WNW 12:40:03 61° WNW 12:44:09 10° NNW
Ariane H10+ 3.2 12:38:28 10° W 12:39:58 36° W 12:39:58 36° W
BREEZE-M DEB (TANK) 4.0 12:27:26 10° SW 12:43:19 88° ESE 12:44:01 70° NE
Hubble Space Telescope 3.2 12:43:27 10° W 12:44:49 16° WSW 12:44:49 16° WSW
CSL-04 Debris 4.4 12:47:04 65° W 12:47:04 65° W 12:52:21 10° NNW
ATLAS 3B CENTAUR R/B 4.0 12:32:34 10° WNW 12:48:07 80° NNE 12:52:13 53° ESE
BLOCK DM-SL R/B 3.9 12:45:39 10° W 12:50:32 85° S 21:10:49 10° E
Centaur D AC-28 3.4 12:09:42 10° WNW 13:00:06 81° NNE 13:01:23 68° E
Ariane H10+ 3.7 13:05:43 10° W 13:10:40 84° N 23:15:09 10° E
USA 215 4.5 19:20:09 10° NNE 19:23:39 35° NNE 19:23:39 35° NNE
Ariane H10+ 3.7 19:47:17 49° SSE 19:47:17 49° SSE 20:01:44 10° ESE
deb Olympus 4.5 19:50:46 64° E 19:50:46 64° E 20:05:39 10° E
SL-16 R/B 3.1 19:48:40 10° N 19:53:50 46° ENE 19:53:50 46° ENE
Cosmos 1844 Rocket 3.5 20:01:16 45° NNE 20:01:16 45° NNE 20:05:04 10° NNE
Milstar 3 Cent rocket 4.1 20:02:17 17° N 20:02:17 17° N 20:04:23 10° NNE
NOSS 3-1 (C) 3.9 20:07:55 42° NNE 20:07:55 42° NNE 20:11:10 10° NNE
CZ-4C R/B 2.8 20:22:36 34° N 20:22:36 34° N 20:25:11 10° NNE
Meteor 2-4 Rocket 4.3 20:18:18 10° NNW 20:22:21 45° NW 20:22:21 45° NW
NOSS 3-1 (A) 3.5 20:23:55 44° SE 20:24:32 47° ESE 20:29:15 10° NE
CZ-4B R/B 4.4 20:20:29 10° NNE 20:25:04 41° ESE 20:26:51 29° SSE
Lacrosse 4 Rocket 4.0 20:25:01 10° NNW 20:25:16 12° NNW 20:25:16 12° NNW
ATLAS 5 CENTAUR R/B 3.4 20:26:39 36° SSW 20:30:08 50° SE 21:01:02 10° ENE
CZ-2C R/B 3.6 20:31:44 11° ESE 20:31:44 11° ESE 20:32:07 10° ESE
CZ-2C R/B 4.2 20:29:41 10° NE 20:34:00 36° ESE 20:37:30 15° SSE
ARIANE 5 DEB (SYLDA) 4.2 20:38:15 34° SSE 20:38:17 34° SSE 20:46:11 10° E
SWIFT 3.4 20:40:59 33° SE 20:40:59 33° SE 20:43:33 10° SE
ARIANE 5 R/B 4.4 20:37:51 10° NNW 20:39:17 16° NW 20:39:17 16° NW
Envisat 2.8 20:36:57 10° N 20:42:00 84° WNW 20:43:22 50° SSW
NOSS 2-2 (E) 3.7 20:41:30 54° SSE 20:42:16 66° ESE 20:46:01 10° NNE
Meteor 2-9 Rocket 4.2 20:42:54 26° S 20:46:18 86° E 20:51:57 10° N
CZ-2C R/B 2.7 20:44:42 10° N 20:48:41 75° W 20:48:43 75° W
SL-08 R/B 4.1 20:46:43 10° SSE 20:51:25 53° ENE 20:56:10 10° N
BREEZE-M DEB (TANK) 4.5 20:55:40 27° SSW 20:55:40 27° SSW 21:00:34 10° SSE
NOAA 11 4.2 21:00:26 10° NNE 21:05:51 80° ESE 21:11:18 10° S
Nadezhda 4 Rocket 4.0 21:01:19 10° S 21:07:34 85° E 21:13:44 10° N
ASTRO E2 3.7 21:08:47 28° SSW 21:08:47 28° SSW 21:11:37 10° SSE
Cosmos 1862 Rocket 4.1 21:05:42 10° NNW 21:09:37 34° W 21:10:02 33° WSW
DELTA 2 DEB (DPAF) 4.3 21:07:01 18° S 21:10:05 47° WSW 21:14:18 10° NNW
H-2A R/B 3.2 21:09:05 10° N 21:12:39 40° W 21:13:33 34° WSW
ARIANE 5 R/B 3.3 21:12:24 27° WSW 21:14:54 77° S 21:40:35 10° E
Meteor 1-4 Rocket 2.9 21:13:19 10° S 21:16:46 62° E 21:20:16 10° NNE
PSLV R/B 4.4 21:14:40 10° NNW 21:18:15 28° WNW 21:19:14 26° WSW
Meteor 2-15 Rocket 4.4 21:14:19 10° N 21:20:24 73° W 21:26:29 10° S
BREEZE-M R/B 4.4 21:15:59 10° NNW 21:20:30 35° NE 21:23:15 10° ESE
MINOTAUR 4 R/B 4.2 21:18:06 10° SSE 21:21:37 74° ENE 21:25:05 10° N
Spelda 4.1 21:22:39 22° SW 21:23:39 26° S 21:25:55 10° SE
APEX 2.4 21:21:05 10° NNW 21:23:47 56° WSW 21:26:48 10° S
Sakura Rocket 2.7 21:21:09 10° NW 21:24:53 71° NNE 21:28:31 10° ESE
DELTA 4 R/B 3.8 21:22:49 10° NNW 21:25:09 27° NE 21:30:46 10° E
NOSS 2-2 (D) 3.8 21:23:02 20° SW 21:25:57 45° WNW 21:29:35 10° N
ARIANE 44L R/B 2.5 21:19:09 13° W 21:26:07 67° SSW 21:28:39 10° ESE
Okean 3 3.6 21:23:31 10° N 21:27:39 75° E 21:31:48 10° S
Cosmos 2278 Rocket 3.0 21:22:48 10° S 21:28:19 53° ESE 21:33:47 10° NNE
Meteor 2-14 Rocket 4.4 21:23:07 10° SSW 21:29:04 60° W 21:35:03 10° N
Cosmos 2242 Rocket 4.1 21:25:30 10° N 21:29:57 64° E 21:34:28 10° SSE
CZ-3B Rocket 3.0 21:30:54 17° WSW 21:32:52 23° SSW 21:35:57 10° SE
ARIANE 3 DEB 3.5 21:28:28 11° WNW 21:33:52 48° N 21:36:49 10° ENE
Meteor 2-21 Rocket 4.4 21:28:07 10° S 21:34:11 85° W 21:40:17 10° N
Aureole 3 Rocket 4.1 21:33:30 10° NNE 21:37:07 49° E 21:42:00 10° SSE
CZ-4B R/B 4.0 21:34:12 10° N 21:38:36 79° WNW 21:42:54 10° SSW
Okean 1-7 3.3 21:36:57 10° NNW 21:41:07 47° W 21:45:19 10° SSW
Cosmos 2084 3.8 21:37:36 10° NW 21:41:55 48° WSW 21:46:27 10° S
Cosmos 292 Rocket 3.7 21:38:16 10° NNW 21:43:02 71° WSW 21:47:51 10° S
OAO 2 Rocket 4.5 21:40:18 12° W 21:44:22 31° NW 21:48:46 10° NNE
DELTA 2 R/B(2) 3.3 21:43:14 17° SW 21:44:33 81° NW 21:47:35 10° NE
ARIANE 5 R/B 2.0 21:43:06 13° W 21:45:04 83° S 21:51:40 10° E
USA 229 DEB 4.1 21:42:15 11° SW 21:47:38 36° WNW 21:53:15 10° N
USA 229 4.1 21:42:16 10° SW 21:47:43 36° WNW 21:53:22 10° N
Cosmos 1842 3.2 21:45:15 10° NNW 21:49:06 63° W 21:52:59 10° S
H-2A R/B 3.6 21:44:52 10° NE 21:49:21 35° ESE 21:53:47 10° SSE
Cosmos 1943 3.3 21:45:20 10° NNW 21:50:47 54° WSW 21:56:15 10° S
Cosmos 1975 4.2 21:48:40 10° SW 21:51:38 20° W 21:54:35 10° NW
ARIANE 5 R/B 4.3 21:17:44 12° W 21:52:45 56° S 21:59:03 10° ESE
Cosmos 2279 Rocket 4.3 21:48:16 10° NNW 21:54:03 42° W 21:59:52 10° SSW
Cosmos 1092 Rocket 4.0 21:48:06 10° S 21:54:15 67° W 22:00:19 10° N
Ariane H10 3.7 21:51:27 10° WSW 21:54:31 28° S 21:57:15 10° ESE
Delta 198 3.7 21:51:25 10° WSW 21:56:24 67° NNW 22:00:36 10° NE
Genesis I 3.4 21:53:37 10° SW 21:57:21 51° WNW 22:01:11 10° N
ADEOS 4.2 21:54:03 10° NNE 21:59:11 62° ESE 22:04:21 10° S
Cosmos 1939 Rocket 2.8 21:55:53 10° N 21:59:39 64° WNW 22:03:27 10° SSW
USA 81 4.3 21:56:36 10° NNW 22:01:36 47° W 22:06:39 10° SSW
ARIANE 44L R/B 3.3 21:51:34 10° W 22:02:35 51° SSW 22:05:31 10° ESE
